Location: Newark
(52.3500°N, 175.9667°E)
Time: 12:30:56
(UTC+00:00)

N. Korean satellite - Visible Passes

Search period start: 28 February 2021 00:00
Search period end: 10 March 2021 00:00
Orbit: 451 x 503 km, 97.2° (Epoch: 27 February)

Date Brightness Start Highest point End Pass type
(mag) Time Alt. Az. Time Alt. Az. Time Alt. Az.
28 Feb 6.9 17:44:28 10° NNE 17:47:57 65° ESE 17:51:29 10° S visible
01 Mar 8.4 17:17:56 10° NNE 17:21:08 32° E 17:24:22 10° SSE visible
02 Mar 9.6 16:51:46 10° NE 16:54:13 18° E 16:56:40 10° SE visible
03 Mar 6.5 17:57:30 10° NNE 18:01:02 88° WNW 18:04:36 10° SSW visible
04 Mar 7.7 17:30:49 10° NNE 17:34:15 45° E 17:37:42 10° S visible
05 Mar 9.1 17:04:25 10° NE 17:07:22 24° E 17:10:20 10° SSE visible
06 Mar 9.9 16:38:37 10° ENE 16:40:23 13° E 16:42:10 10° ESE visible
06 Mar 6.5 18:10:32 10° N 18:14:04 62° WNW 18:17:37 10° SSW visible
07 Mar 7.0 17:43:46 10° NNE 17:47:19 65° ESE 17:50:54 10° S visible
08 Mar 8.5 17:17:11 10° NNE 17:20:27 33° E 17:23:45 10° SSE visible
09 Mar 9.6 16:50:59 10° NE 16:53:31 18° E 16:56:03 10° SE visible
